7 * 24
多渠道服务支持
RADUGA 1M-2(中文名虹1M-2),由独立国家联合体(CIS)发射于2010年1月28日,属于俄罗斯第三代“虹”系列地球同步轨道通信卫星,归俄罗斯航天部队运行管理。该卫星由列舍特涅夫信息卫星系统公司基于MSS-2500-GSO平台打造,发射质量约2300千克,设计寿命10年,搭载多频段通信载荷,主要承担军事通信任务,与其他卫星共同构成俄罗斯综合卫星通信系统,服务东半球除极区外通信需求。
| 数据来源 | 国际轨道数据 |
| 星历时间: | 2026-09-11T06:06:39+0800 7小时前 查看轨道信息 |
| 半长轴: | 42535.24km |
| 偏心率: | 0.0004623 |
| 轨道倾角: | 3.838° |
| 近地点辐角 | 240.789° |
| 升交点赤经 | 77.740° |
| 平近点角 | 269.133° |
| 近地点: | 36137.438km |
| 远地点: | 36176.768km |
| 周期: | 1455.067分钟 |
| 每日圈数: | 0.989645 |